This is the latest recevied weather packets stored in our database for station/object K6CEG. If no packets are shown the sender has not sent any weather packets the latest 10 day(s).
| Time | Temp. | Humidity | Pressure | Rain* | Wind** | Luminosity | Snow |
|---|---|---|---|---|---|---|---|
| 1787930968 | 29.44° C | 57% | 1014.1 hPa | 0 mm | - | 196 W/m² | - |
| 1787930667 | 28.89° C | 59% | 1014.1 hPa | 0 mm | - | 198 W/m² | - |
| 1787930362 | 28.89° C | 59% | 1014.3 hPa | 0 mm | - | 186 W/m² | - |
| 1787930057 | 28.89° C | 59% | 1014 hPa | 0 mm | - | 165 W/m² | - |
| 1787929755 | 28.89° C | 60% | 1014.1 hPa | 0 mm | - | 148 W/m² | - |
| 1787929451 | 28.33° C | 61% | 1014.1 hPa | 0 mm | - | 128 W/m² | - |
| 1787929148 | 27.78° C | 62% | 1014.1 hPa | 0 mm | - | 117 W/m² | - |
| 1787928844 | 27.22° C | 65% | 1014.3 hPa | 0 mm | - | 111 W/m² | - |
| 1787928543 | 26.11° C | 67% | 1014.4 hPa | 0 mm | - | 93 W/m² | - |
| 1787928242 | 26.11° C | 67% | 1014.4 hPa | 0 mm | - | 53 W/m² | - |
| 1787927941 | 25.56° C | 68% | 1014 hPa | 0 mm | - | 44 W/m² | - |
| 1787927635 | 25.56° C | 69% | 1014.1 hPa | 0 mm | - | 42 W/m² | - |
| 1787927330 | 25° C | 70% | 1014.2 hPa | 0 mm | - | 32 W/m² | - |
| 1787927026 | 25° C | 70% | 1014.3 hPa | 0 mm | - | 29 W/m² | - |
| 1787926726 | 24.44° C | 71% | 1014.2 hPa | 0 mm | - | 28 W/m² | - |
| 1787926425 | 24.44° C | 71% | 1014.3 hPa | 0 mm | - | 27 W/m² | - |
| 1787926119 | 23.89° C | 72% | 1014.1 hPa | 0 mm | - | 23 W/m² | - |
| 1787925819 | 23.89° C | 72% | 1014.2 hPa | 0 mm | - | 19 W/m² | - |
| 1787925518 | 23.89° C | 72% | 1014.1 hPa | 0 mm | - | 15 W/m² | - |
| 1787925213 | 23.89° C | 73% | 1014.1 hPa | 0 mm | - | 12 W/m² | - |
| 1787924912 | 23.89° C | 73% | 1014.1 hPa | 0 mm | - | 8 W/m² | - |
| 1787924607 | 23.89° C | 73% | 1013.9 hPa | 0 mm | - | 6 W/m² | - |
| 1787924302 | 23.89° C | 73% | 1013.8 hPa | 0 mm | - | 3 W/m² | - |
| 1787923998 | 23.89° C | 72% | 1013.7 hPa | 0 mm | - | 3 W/m² | - |
| 1787923697 | 23.89° C | 72% | 1014 hPa | 0 mm | - | 1 W/m² | - |
* Rain latest hour (hover to see other rain measurements)
** Current wind speed in m/s (hover to see current wind gust speed)